Location: Kelshall
(52.0000°N, 0.0500°W)
Time: 12:15:43
(UTC+00:00)

Cosmos 1844 Rocket - Pass Details

Date: 18 September 2020
Orbit: 823 x 846 km, 71.0° (Epoch: 22 October)

Event Time Altitude Azimuth Distance (km) Brightness Sun altitude
Rises 19:39:38 0° 182° (S) 3,347 5.6 -14.7°
Reaches altitude 10° 19:42:11 10° 174° (S) 2,420 4.8 -15.1°
Maximum altitude 19:47:14 38° 108° (ESE) 1,255 3.1 -15.8°
Drops below altitude 10° 19:52:21 10° 43° (NE) 2,445 4.9 -16.5°
Sets 19:54:56 0° 35° (NE) 3,386 5.7 -16.9°
